EA4TN Weather Reports


time (UTC)temp
C
wind
direction
speed
KPH
gust
KPH
rain 1hr
cm
rain 24hr
cm
rain mn
cm
humidity
%
barometer
mb
20260506153015 20 323 4.8 8.0 0.00 0.00 0.00 31 1010.3
20260506152015 20 350 3.2 9.7 0.00 0.00 0.00 32 1010.4
20260506151015 19 34 4.8 8.0 0.00 0.00 0.00 32 1010.6
20260506150015 19 273 1.6 6.4 0.00 0.00 0.00 34 1010.7
20260506145015 18 156 1.6 6.4 0.00 0.00 0.00 36 1010.7
20260506144015 18 119 1.6 4.8 0.00 0.00 0.00 36 1011.0
20260506143015 18 202 3.2 6.4 0.00 0.00 0.00 37 1011.2
20260506142015 18 33 3.2 11.3 0.00 0.00 0.00 36 1011.3
20260506141015 19 84 3.2 17.7 0.00 0.00 0.00 35 1011.5
20260506140015 20 61 6.4 14.5 0.00 0.00 0.00 34 1011.7
20260506135015 19 49 3.2 12.9 0.00 0.00 0.00 35 1011.7
20260506134015 18 43 1.6 11.3 0.00 0.00 0.00 36 1011.7
20260506133015 18 125 4.8 14.5 0.00 0.00 0.00 37 1011.8
20260506132015 19 222 4.8 11.3 0.00 0.00 0.00 36 1011.9
20260506131035 18 103 4.8 9.7 0.00 0.00 0.00 37 1012.0
20260506130015 18 111 9.7 16.1 0.00 0.00 0.00 38 1012.2
20260506125035 18 74 6.4 11.3 0.00 0.00 0.00 40 1012.2
20260506124015 17 39 6.4 11.3 0.00 0.00 0.00 40 1012.4
20260506123015 17 339 3.2 19.3 0.00 0.00 0.00 40 1012.4
20260506122016 17 263 3.2 9.7 0.00 0.00 0.00 40 1012.5
20260506121015 17 57 4.8 11.3 0.00 0.00 0.00 40 1012.6
20260506120015 17 56 8.0 17.7 0.00 0.00 0.00 41 1012.8
20260506115015 17 314 4.8 12.9 0.00 0.00 0.00 41 1012.8
20260506114015 17 89 8.0 19.3 0.00 0.00 0.00 42 1012.9
20260506113015 17 83 6.4 17.7 0.00 0.00 0.00 44 1013.0
20260506112015 17 107 6.4 16.1 0.00 0.00 0.00 45 1013.0
20260506111015 16 135 4.8 11.3 0.00 0.00 0.00 46 1013.1
20260506110015 16 119 8.0 16.1 0.00 0.00 0.00 46 1013.1
20260506105035 16 67 4.8 11.3 0.00 0.00 0.00 44 1013.2
20260506104055 16 88 4.8 12.9 0.00 0.00 0.00 46 1013.3
20260506103015 15 58 3.2 12.9 0.00 0.00 0.00 48 1013.2
20260506102015 16 91 4.8 12.9 0.00 0.00 0.00 49 1013.3
20260506101015 15 2 4.8 16.1 0.00 0.00 0.00 49 1013.5
20260506100015 15 79 3.2 12.9 0.00 0.00 0.00 49 1013.6
20260506095015 15 79 6.4 16.1 0.00 0.00 0.00 52 1013.6
20260506094015 15 79 4.8 12.9 0.00 0.00 0.00 50 1013.5
20260506093015 15 44 6.4 14.5 0.00 0.00 0.00 55 1013.5
20260506092015 14 126 4.8 12.9 0.00 0.00 0.00 58 1013.6
20260506091015 13 45 6.4 16.1 0.00 0.00 0.00 60 1013.6
20260506090015 13 65 4.8 14.5 0.00 0.00 0.00 61 1013.5
20260506085015 12 35 6.4 12.9 0.00 0.00 0.00 63 1013.6
20260506084015 12 53 6.4 12.9 0.00 0.00 0.00 64 1013.6
20260506083015 11 59 4.8 11.3 0.00 0.00 0.00 66 1013.6
20260506082015 11 82 6.4 14.5 0.00 0.00 0.00 67 1013.5
20260506081015 11 50 4.8 16.1 0.00 0.00 0.00 68 1013.4
20260506073015 10 49 4.8 11.3 0.00 0.00 0.00 71 1013.4
20260506072015 10 35 6.4 9.7 0.00 0.00 0.00 72 1013.4
20260506071056 10 57 6.4 9.7 0.00 0.00 0.00 72 1013.4
20260506062035 7 56 4.8 11.3 0.00 0.00 0.00 79 1012.9
20260506061015 7 58 4.8 11.3 0.00 0.00 0.00 79 1012.8
20260506051015 7 46 6.4 11.3 0.00 0.00 0.00 81 1012.4
20260506045016 7 43 4.8 9.7 0.00 0.00 0.00 80 1012.2
20260506044016 7 46 6.4 9.7 0.00 0.00 0.00 80 1012.1
20260506043035 7 51 4.8 11.3 0.00 0.00 0.00 80 1012.2
20260506042016 7 49 6.4 11.3 0.00 0.00 0.00 79 1012.3
20260506041015 7 51 8.0 14.5 0.00 0.00 0.00 78 1012.3
20260506040015 7 69 4.8 11.3 0.00 0.00 0.00 78 1012.4
20260506035016 7 47 6.4 11.3 0.00 0.00 0.00 77 1012.4
20260506034016 7 53 6.4 11.3 0.00 0.00 0.00 76 1012.5
20260506033015 8 64 4.8 9.7 0.00 0.00 0.00 76 1012.6
20260506032015 8 50 3.2 11.3 0.00 0.00 0.00 75 1012.6
20260506031016 8 44 6.4 14.5 0.00 0.00 0.00 75 1012.6
20260506030016 8 53 4.8 11.3 0.00 0.00 0.00 73 1012.5
20260506025016 8 55 3.2 8.0 0.00 0.00 0.00 72 1012.6
20260506024016 8 65 3.2 8.0 0.00 0.00 0.00 72 1012.5
20260506023016 9 43 6.4 9.7 0.00 0.00 0.00 71 1012.5
20260506022016 9 55 3.2 11.3 0.00 0.00 0.00 69 1012.7
20260506021016 9 73 4.8 9.7 0.00 0.00 0.00 69 1012.7
20260506020015 9 75 4.8 9.7 0.00 0.00 0.00 69 1012.7
20260506015035 10 47 4.8 8.0 0.00 0.00 0.00 68 1012.9
20260506014016 10 46 3.2 4.8 0.00 0.00 0.00 67 1012.8
20260506013016 10 39 3.2 4.8 0.00 0.00 0.00 66 1012.8
20260506012016 10 0.0 0.0 0.00 0.00 0.00 66 1012.8
20260506011015 10 0.0 1.6 0.00 0.00 0.00 64 1012.9
20260506010015 10 38 1.6 6.4 0.00 0.00 0.00 63 1013.0
20260506005016 10 59 3.2 6.4 0.00 0.00 0.00 63 1013.0
20260506004035 10 79 3.2 8.0 0.00 0.00 0.00 63 1012.9
20260506003015 11 51 4.8 11.3 0.00 0.00 0.00 62 1012.9
20260506002016 11 73 4.8 9.7 0.00 0.00 0.00 62 1013.2
20260506001016 11 44 4.8 8.0 0.00 0.00 0.00 62 1013.1
20260506000015 11 39 4.8 8.0 0.00 0.00 0.00 61 1013.1
20260505235015 11 44 6.4 9.7 0.00 0.00 0.00 61 1013.1
20260505234015 11 49 4.8 11.3 0.00 0.00 0.00 61 1013.0
20260505233035 11 39 4.8 9.7 0.00 0.00 0.00 61 1013.0
20260505232015 11 35 4.8 9.7 0.00 0.00 0.00 60 1013.0
20260505231015 11 47 6.4 9.7 0.00 0.00 0.00 58 1012.9
20260505230015 11 46 6.4 14.5 0.00 0.00 0.00 56 1012.9
20260505225015 12 47 8.0 11.3 0.00 0.00 0.00 54 1013.0
20260505224015 12 72 3.2 9.7 0.00 0.00 0.00 53 1013.0
20260505223015 12 27 3.2 4.8 0.00 0.00 0.00 51 1012.7
20260505222035 13 27 1.6 3.2 0.00 0.00 0.00 49 1012.9
20260505221035 13 27 1.6 3.2 0.00 0.00 0.00 48 1012.8
20260505220015 13 351 1.6 4.8 0.00 0.00 0.00 47 1012.7
20260505215035 13 329 1.6 4.8 0.00 0.00 0.00 46 1012.8
20260505214015 13 19 0.0 3.2 0.00 0.00 0.00 45 1012.9
20260505213015 13 332 1.6 4.8 0.00 0.00 0.00 44 1013.0
20260505212015 14 308 3.2 9.7 0.00 0.00 0.00 44 1013.1
20260505211015 14 315 1.6 6.4 0.00 0.00 0.00 43 1013.0
20260505210015 14 325 3.2 4.8 0.00 0.00 0.00 43 1013.0
20260505205015 15 337 1.6 4.8 0.00 0.00 0.00 42 1013.0
20260505204015 15 343 1.6 9.7 0.00 0.00 0.00 40 1012.8
20260505203015 15 332 3.2 8.0 0.00 0.00 0.00 39 1012.7
20260505202015 15 1 3.2 9.7 0.00 0.00 0.00 39 1012.6
20260505201035 15 357 3.2 8.0 0.00 0.00 0.00 39 1012.4
20260505200015 15 351 4.8 14.5 0.00 0.00 0.00 39 1012.3
20260505195035 15 353 4.8 11.3 0.00 0.00 0.00 37 1012.2
20260505194015 16 350 4.8 12.9 0.00 0.00 0.00 37 1012.0
20260505193015 16 337 4.8 9.7 0.00 0.00 0.00 37 1011.9
20260505192016 16 5 6.4 14.5 0.00 0.00 0.00 37 1011.7
20260505191015 16 341 4.8 12.9 0.00 0.00 0.00 37 1011.7
20260505190015 17 337 6.4 12.9 0.00 0.00 0.00 36 1011.6
20260505185015 17 321 6.4 14.5 0.00 0.00 0.00 35 1011.6
20260505184055 17 321 4.8 17.7 0.00 0.00 0.00 34 1011.4
20260505183036 17 334 6.4 12.9 0.00 0.00 0.00 34 1011.2
20260505182015 18 318 6.4 14.5 0.00 0.00 0.00 34 1011.2
20260505181015 18 349 8.0 19.3 0.00 0.00 0.00 34 1011.2
20260505180016 18 329 4.8 14.5 0.00 0.00 0.00 35 1011.1
20260505175015 17 287 4.8 16.1 0.00 0.00 0.00 35 1011.0
20260505174015 17 313 6.4 14.5 0.00 0.00 0.00 36 1011.0
20260505173016 17 322 6.4 17.7 0.00 0.00 0.00 36 1011.0
20260505172016 17 332 6.4 14.5 0.00 0.00 0.00 36 1011.0
20260505171015 17 303 8.0 17.7 0.00 0.00 0.00 35 1011.2
20260505170015 18 295 8.0 20.9 0.00 0.00 0.00 34 1011.2
20260505165015 18 312 8.0 17.7 0.00 0.00 0.00 34 1011.2
20260505164016 18 329 6.4 16.1 0.00 0.00 0.00 33 1011.1
20260505163015 18 310 6.4 14.5 0.00 0.00 0.00 32 1011.0
20260505162016 18 307 12.9 22.5 0.00 0.00 0.00 31 1011.1
20260505161055 18 349 8.0 20.9 0.00 0.00 0.00 32 1011.1